This demonstration page uses our WeatherBlox Daily Observations layout. Learn more.

Left ArrowRight Arrow

39.92423, -83.80882

Hourly Observations for March 2, 2022

Temp ( °F °C ) Dew Point ( °F °C ) Humidity (%) Winds ( mph kmh ) Pressure ( in mb ) Visibility ( mi km ) Precip ( " mm )
12:56 am 00:56 Cloudy 43 6.1 36 2.2 76 76 N 8 13 30.07 1018 10 16 0.00 0.00
1:56 am 01:56 Clear 39 3.9 34 1.1 82 82 N 7 11 30.09 1019 10 16 0.00 0.00
2:56 am 02:56 Clear 37 2.8 35 1.7 93 93 NNW 5 7 30.08 1019 10 16 0.00 0.00
3:56 am 03:56 Mostly Clear 36 2.2 34 1.1 93 93 Calm 30.07 1018 10 16 0.00 0.00
4:56 am 04:56 Clear 35 1.7 35 1.7 100 100 NNW 5 7 30.08 1019 10 16 0.00 0.00
5:56 am 05:56 Clear 32 0 32 0 100 100 NNW 5 7 30.10 1019 10 16 0.00 0.00
6:56 am 06:56 Clear 32 0 32 0 100 100 NNW 5 7 30.11 1020 10 16 0.00 0.00
7:56 am 07:56 Sunny 33 0.6 32 0 96 96 Calm 30.12 1020 7 11 0.00 0.00
8:56 am 08:56 Sunny 38 3.3 32 0 79 79 Calm 30.13 1020 10 16 0.00 0.00
9:56 am 09:56 Mostly Cloudy 43 6.1 35 1.7 74 74 WSW 3 6 30.13 1020 10 16 0.00 0.00
10:56 am 10:56 Mostly Cloudy 48 8.9 28 -2.2 46 46 WSW 5 7 30.11 1020 10 16 0.00 0.00
11:56 am 11:56 Sunny 52 11.1 29 -1.7 41 41 W 5 7 30.11 1020 10 16 0.00 0.00
12:56 pm 12:56 Sunny 54 12.2 33 0.6 45 45 W 7 11 30.09 1019 10 16 0.00 0.00
1:56 pm 13:56 Partly Cloudy 57 13.9 35 1.7 44 44 WSW 12 19 30.06 1018 10 16 0.00 0.00
2:56 pm 14:56 Sunny 58 14.4 35 1.7 42 42 SW 8 13 30.03 1017 10 16 0.00 0.00
3:56 pm 15:56 Sunny 60 15.6 37 2.8 42 42 WSW 14 22 30.01 1016 10 16 0.00 0.00
4:56 pm 16:56 Partly Cloudy 60 15.6 38 3.3 44 44 WSW 10 17 29.99 1016 10 16 0.00 0.00
5:56 pm 17:56 Cloudy 57 13.9 39 3.9 51 51 WSW 9 15 29.98 1015 10 16 0.00 0.00
6:56 pm 18:56 Cloudy with Light Rain 55 12.8 41 5 59 59 SW 8 13 29.98 1015 10 16 0.00 0.00
7:56 pm 19:56 Cloudy with Light Rain 54 12.2 47 8.3 77 77 W 17 28 29.98 1015 10 16 0.00 0.00
8:56 pm 20:56 Cloudy with Light Rain 53 11.7 47 8.3 80 80 NW 9 15 29.97 1015 10 16 0.00 0.00
9:56 pm 21:56 Cloudy 53 11.7 45 7.2 74 74 W 5 7 29.97 1015 10 16 0.00 0.00
10:56 pm 22:56 Cloudy 52 11.1 45 7.2 77 77 WNW 7 11 29.96 1015 10 16 0.00 0.00
11:56 pm 23:56 Cloudy with Light Rain 53 11.7 45 7.2 74 74 WNW 12 19 29.98 1015 10 16 0.00 0.00

Powered by AerisWeather